Reynoldsville, PA

10:03 PM EST on February 20, 2017 (GMT -0500)
Du Bois-Jefferson County

Weather History for KDUJ - August, 2013

Change the Weather History Date:

Thursday, August 29, 2013

  Actual Average Record
Temperature  
Mean Temperature 76 °F 66 °F  
Max Temperature 86 °F 76 °F 91 °F (1991)
Min Temperature 65 °F 55 °F 34 °F (1982)
Degree Days  
Heating Degree Days 0 2  
Month to date heating degree days 25 33  
Since 1 June heating degree days 76 142  
Since 1 July heating degree days 38 57  
Cooling Degree Days 11 2  
Month to date cooling degree days 99 103  
Year to date cooling degree days 466 328  
Since 1 June cooling degree days 407 305  
Growing Degree Days 25 (Base 50)    
Moisture  
Dew Point 64 °F    
Average Humidity 69    
Maximum Humidity 93    
Minimum Humidity 44    
Precipitation  
Precipitation 0.00 in 0.13 in 1.38 in (1988)
Month to date precipitation 2.25 3.74  
Sea Level Pressure  
Sea Level Pressure 30.01 in    
Wind  
Wind Speed 3 mph (NNE)    
Max Wind Speed 9 mph    
Max Gust Speed 13 mph    
Visibility 6 miles    
Events Fog    
T = Trace of Precipitation, MM = Missing Value Source: NWS Daily Summary

Daily Weather History Graph

Daily Weather History Graph

Search for Another Location

Airport or City:

Trip Planner

Search our weather history database for the weather conditions in past years. The results will help you decide how hot, cold, wet, or windy it might be!

Date:

Astronomy

Aug. 29, 2013 Rise Set
Actual Time 6:39 AM EDT 7:52 PM EDT
Civil Twilight 6:10 AM EDT 8:21 PM EDT
Nautical Twilight 5:36 AM EDT 8:55 PM EDT
Astronomical Twilight 5:00 AM EDT 9:30 PM EDT
Moon 12:27 AM EDT (8/29) 3:21 PM EDT (8/29)
Length of Visible Light 14h 10m
Length of Day
13h 13m
Last Quarter, 38% of the Moon is Illuminated
Aug 29
Last Quarter
Sep 5
New
Sep 12
First Quarter
Sep 19
Full
Sep 26
Last Quarter

Hourly Weather History & Observations

Time (EDT) Temp. Heat Index Dew Point Humidity Pressure Visibility Wind Dir Wind Speed Gust Speed Precip Events Conditions
12:56 AM 69.1 °F - 66.0 °F 90% 29.94 in 8.0 mi North 3.5 mph - N/A   Clear
1:56 AM 68.0 °F - 64.9 °F 90% 29.95 in 5.0 mi NNE 4.6 mph - N/A   Partly Cloudy
2:07 AM 69.8 °F - 66.2 °F 88% 29.98 in 5.0 mi NNE 4.6 mph - N/A   Mostly Cloudy
2:35 AM 68.0 °F - 64.4 °F 88% 29.98 in 6.0 mi NNE 4.6 mph - N/A   Scattered Clouds
2:56 AM 68.0 °F - 64.9 °F 90% 29.95 in 5.0 mi NE 5.8 mph - N/A   Clear
3:56 AM 66.9 °F - 64.9 °F 93% 29.96 in 4.0 mi Calm Calm - N/A   Clear
4:17 AM 66.2 °F - 64.4 °F 94% 30.00 in 1.0 mi Calm Calm - N/A   Clear
4:22 AM 66.2 °F - 64.4 °F 94% 30.00 in 0.2 mi Calm Calm - N/A Fog Fog
4:36 AM 66.2 °F - 64.4 °F 94% 30.00 in 0.5 mi Calm Calm - N/A Fog Fog
4:46 AM 66.2 °F - 64.4 °F 94% 30.00 in 1.2 mi Calm Calm - N/A   Partly Cloudy
4:56 AM 66.9 °F - 64.9 °F 93% 29.97 in 0.8 mi NNE 3.5 mph - N/A   Clear
5:09 AM 66.2 °F - 64.4 °F 94% 30.01 in 0.2 mi Calm Calm - N/A Fog Fog
5:26 AM 66.2 °F - 64.4 °F 94% 30.01 in 1.0 mi Calm Calm - N/A   Overcast
5:41 AM 66.2 °F - 64.4 °F 94% 30.01 in 2.5 mi Calm Calm - N/A   Overcast
5:56 AM 66.0 °F - 63.0 °F 90% 29.98 in 2.5 mi NE 3.5 mph - N/A   Mostly Cloudy
6:08 AM 66.2 °F - 64.4 °F 94% 30.02 in 1.0 mi Calm Calm - N/A   Mostly Cloudy
6:37 AM 66.2 °F - 64.4 °F 94% 30.03 in 3.0 mi NE 3.5 mph - N/A   Overcast
6:53 AM 66.2 °F - 64.4 °F 94% 30.03 in 2.5 mi NE 3.5 mph - N/A   Overcast
6:56 AM 66.9 °F - 64.0 °F 90% 30.00 in 2.5 mi Calm Calm - N/A   Overcast
7:33 AM 66.2 °F - 64.4 °F 94% 30.05 in 3.0 mi NE 3.5 mph - N/A   Mostly Cloudy
7:53 AM 69.8 °F - 66.2 °F 88% 30.05 in 3.0 mi NE 3.5 mph - N/A   Scattered Clouds
7:56 AM 69.1 °F - 66.0 °F 90% 30.02 in 3.0 mi ENE 4.6 mph - N/A   Scattered Clouds
8:56 AM 72.0 °F - 66.0 °F 81% 30.04 in 7.0 mi NE 8.1 mph - 0.01 in   Clear
9:56 AM 72.0 °F - 66.0 °F 81% 30.04 in 8.0 mi NE 6.9 mph - N/A   Mostly Cloudy
10:40 AM 77.0 °F - 66.2 °F 69% 30.08 in 10.0 mi Variable 4.6 mph - N/A   Mostly Cloudy
10:56 AM 77.0 °F - 66.0 °F 69% 30.04 in 10.0 mi NNE 6.9 mph - N/A   Scattered Clouds
11:21 AM 77.0 °F - 64.4 °F 65% 30.08 in 10.0 mi Variable 3.5 mph - N/A   Mostly Cloudy
11:56 AM 79.0 °F - 64.9 °F 62% 30.04 in 10.0 mi Variable 4.6 mph - N/A   Partly Cloudy
12:56 PM 84.0 °F 85.8 °F 64.9 °F 53% 30.03 in 10.0 mi ENE 4.6 mph - N/A   Scattered Clouds
1:56 PM 82.0 °F 83.0 °F 62.1 °F 51% 30.04 in 10.0 mi Calm Calm - N/A   Scattered Clouds
2:56 PM 84.0 °F 84.4 °F 61.0 °F 46% 30.02 in 10.0 mi Variable 3.5 mph - N/A   Mostly Cloudy
3:56 PM 84.0 °F 84.0 °F 60.1 °F 44% 30.01 in 10.0 mi Calm Calm - N/A   Clear
4:56 PM 84.0 °F 84.4 °F 61.0 °F 46% 30.01 in 10.0 mi Calm Calm - N/A   Clear
5:56 PM 84.9 °F 84.8 °F 60.1 °F 43% 30.02 in 10.0 mi North 3.5 mph - N/A   Clear
6:56 PM 82.9 °F 83.2 °F 60.1 °F 46% 30.01 in 10.0 mi NNE 3.5 mph - N/A   Clear
7:56 PM 73.9 °F - 64.0 °F 71% 30.02 in 10.0 mi Calm Calm - N/A   Clear
8:56 PM 73.0 °F - 64.0 °F 73% 30.03 in 10.0 mi Calm Calm - N/A   Clear
9:56 PM 73.0 °F - 64.9 °F 76% 30.04 in 10.0 mi Calm Calm - N/A   Clear
10:56 PM 70.0 °F - 64.0 °F 81% 30.04 in 10.0 mi Calm Calm - N/A   Clear
11:56 PM 69.1 °F - 63.0 °F 81% 30.03 in 10.0 mi NNE 3.5 mph - N/A   Clear